Galesburg, IL

5:03 PM CDT on August 22, 2019 (GMT -0500)
Galesburg Municipal

Weather History for KGBG - May, 2019

Change the Weather History Date:

Wednesday, May 22, 2019

  Actual Average Record
Temperature  
Mean Temperature 68 °F -  
Max Temperature 80 °F 73 °F 91 °F (1964)
Min Temperature 56 °F 52 °F 34 °F (1963)
Cooling Degree Days 3    
Growing Degree Days 18 (Base 50)    
Moisture  
Dew Point 60 °F    
Average Humidity 81    
Maximum Humidity 100    
Minimum Humidity 47    
Precipitation  
Precipitation 0.11 in - - ()
Sea Level Pressure  
Sea Level Pressure 29.79 in    
Wind  
Wind Speed 11 mph (SSE)    
Max Wind Speed 26 mph    
Max Gust Speed 34 mph    
Visibility 10 miles    
Events Rain , Thunderstorm    
Averages and records for this station are not official NWS values.
T = Trace of Precipitation, MM = Missing Value Source: NWS Daily Summary

Daily Weather History Graph

Daily Weather History Graph

Search for Another Location

Airport or City:

Astronomy

May. 22, 2019 Rise Set
Actual Time 5:38 AM CDT 8:19 PM CDT
Civil Twilight 5:06 AM CDT 8:51 PM CDT
Nautical Twilight 4:26 AM CDT 9:31 PM CDT
Astronomical Twilight 3:41 AM CDT 10:16 PM CDT
Moon No Moon Rise 8:46 AM CDT
Length of Visible Light 15h 44m
Length of Day
14h 40m
Waning Gibbous, 85% of the Moon is Illuminated
May 22
Waning Gibbous
May 26
Last Quarter
Jun 3
New
Jun 10
First Quarter
Jun 17
Full

Hourly Weather History & Observations

Time (CDT) Temp. Heat Index Dew Point Humidity Pressure Visibility Wind Dir Wind Speed Gust Speed Precip Events Conditions
12:15 AM 56.5 °F - 55.8 °F 97% 29.73 in 10.0 mi ESE 11.5 mph 19.6 mph N/A   Overcast
12:35 AM 56.5 °F - 55.6 °F 97% 29.73 in 10.0 mi ESE 6.9 mph 18.4 mph N/A   Overcast
12:55 AM 56.5 °F - 55.6 °F 97% 29.73 in 10.0 mi ESE 8.1 mph - N/A   Overcast
1:15 AM 56.3 °F - 55.6 °F 97% 29.72 in 10.0 mi ESE 8.1 mph 16.1 mph N/A   Overcast
1:35 AM 56.3 °F - 55.8 °F 98% 29.73 in 10.0 mi ESE 9.2 mph - N/A   Overcast
1:55 AM 56.3 °F - 55.6 °F 97% 29.73 in 10.0 mi ESE 10.4 mph 18.4 mph N/A   Overcast
2:15 AM 56.3 °F - 55.8 °F 98% 29.74 in 10.0 mi ESE 11.5 mph 17.3 mph N/A   Overcast
2:35 AM 56.3 °F - 55.8 °F 98% 29.72 in 10.0 mi ESE 10.4 mph 18.4 mph N/A   Overcast
2:55 AM 56.5 °F - 55.9 °F 98% 29.73 in 10.0 mi ESE 8.1 mph 17.3 mph N/A   Overcast
3:15 AM 56.7 °F - 56.3 °F 99% 29.75 in 10.0 mi East 9.2 mph 16.1 mph N/A   Overcast
3:35 AM 57.0 °F - 56.5 °F 98% 29.75 in 10.0 mi ESE 10.4 mph - N/A   Overcast
3:55 AM 57.4 °F - 56.8 °F 98% 29.73 in 10.0 mi ESE 10.4 mph - N/A   Overcast
4:15 AM 57.7 °F - 57.2 °F 98% 29.74 in 10.0 mi ESE 8.1 mph 18.4 mph N/A   Overcast
4:35 AM 58.1 °F - 57.2 °F 97% 29.75 in 10.0 mi ESE 8.1 mph 17.3 mph N/A   Overcast
4:55 AM 58.1 °F - 57.2 °F 97% 29.75 in 10.0 mi ESE 10.4 mph 19.6 mph N/A   Overcast
5:15 AM 58.1 °F - 57.2 °F 97% 29.74 in 10.0 mi ESE 10.4 mph 17.3 mph N/A   Overcast
5:35 AM 58.1 °F - 57.2 °F 97% 29.74 in 10.0 mi ESE 8.1 mph - N/A   Mostly Cloudy
5:55 AM 58.1 °F - 57.2 °F 97% 29.74 in 10.0 mi ESE 8.1 mph - N/A   Overcast
6:15 AM 58.1 °F - 57.4 °F 97% 29.75 in 10.0 mi ESE 9.2 mph - N/A   Overcast
6:35 AM 58.1 °F - 57.2 °F 97% 29.76 in 10.0 mi ESE 8.1 mph - N/A   Mostly Cloudy
6:55 AM 58.6 °F - 57.4 °F 96% 29.76 in 10.0 mi ESE 6.9 mph - N/A   Scattered Clouds
7:15 AM 59.4 °F - 57.2 °F 93% 29.76 in 10.0 mi ESE 8.1 mph - N/A   Scattered Clouds
7:35 AM 60.4 °F - 56.5 °F 87% 29.76 in 10.0 mi ESE 9.2 mph - N/A   Clear
7:55 AM 61.7 °F - 56.7 °F 84% 29.76 in 10.0 mi ESE 10.4 mph 19.6 mph N/A   Clear
8:15 AM 62.1 °F - 56.5 °F 82% 29.76 in 10.0 mi East 11.5 mph 27.6 mph N/A   Clear
8:35 AM 63.1 °F - 57.2 °F 81% 29.76 in 10.0 mi East 10.4 mph 18.4 mph N/A   Clear
8:55 AM 64.2 °F - 57.7 °F 79% 29.77 in 10.0 mi ESE 11.5 mph 20.7 mph N/A   Clear
9:20 AM 66.0 °F - 58.1 °F 76% 29.77 in 10.0 mi ESE 12.7 mph 21.9 mph N/A   Clear
9:35 AM 66.4 °F - 57.7 °F 74% 29.78 in 10.0 mi SE 12.7 mph 21.9 mph N/A   Clear
9:55 AM 68.0 °F - 57.7 °F 70% 29.78 in 10.0 mi East 12.7 mph 20.7 mph N/A   Clear
10:15 AM 68.5 °F - 58.1 °F 69% 29.78 in 10.0 mi South 16.1 mph 21.9 mph N/A   Clear
10:35 AM 69.6 °F - 58.5 °F 68% 29.78 in 10.0 mi ESE 15.0 mph 20.7 mph N/A   Clear
10:55 AM 70.7 °F - 57.9 °F 64% 29.79 in 10.0 mi East 16.1 mph 25.3 mph N/A   Clear
11:15 AM 71.2 °F - 57.4 °F 61% 29.80 in 10.0 mi SW 15.0 mph 26.5 mph N/A   Clear
11:35 AM 71.8 °F - 58.3 °F 62% 29.81 in 10.0 mi WSW 16.1 mph 27.6 mph N/A   Clear
12:15 PM 73.9 °F - 59.9 °F 61% 29.80 in 10.0 mi WSW 16.1 mph 23.0 mph N/A   Clear
12:35 PM 74.7 °F - 57.7 °F 55% 29.81 in 10.0 mi WSW 18.4 mph 25.3 mph N/A   Clear
12:55 PM 75.9 °F - 57.2 °F 52% 29.81 in 10.0 mi SW 19.6 mph 27.6 mph N/A   Clear
1:15 PM 76.6 °F - 55.8 °F 48% 29.81 in 10.0 mi WSW 24.2 mph 32.2 mph N/A   Clear
1:35 PM 77.5 °F - 57.4 °F 50% 29.81 in 10.0 mi WSW 17.3 mph 28.8 mph N/A   Clear
1:55 PM 77.9 °F - 56.1 °F 47% 29.81 in 10.0 mi WSW 26.5 mph 31.1 mph N/A   Clear
2:15 PM 78.1 °F - 57.2 °F 49% 29.81 in 10.0 mi SW 20.7 mph 29.9 mph N/A   Clear
2:35 PM 78.3 °F - 57.2 °F 48% 29.81 in 10.0 mi WSW 20.7 mph 28.8 mph N/A   Clear
2:55 PM 78.1 °F - 57.9 °F 50% 29.81 in 10.0 mi WSW 21.9 mph 31.1 mph N/A   Clear
3:15 PM 78.8 °F - 58.8 °F 50% 29.81 in 10.0 mi WSW 21.9 mph 27.6 mph N/A   Clear
3:35 PM 79.0 °F - 59.7 °F 52% 29.81 in 10.0 mi WSW 19.6 mph 32.2 mph N/A   Clear
3:55 PM 79.3 °F - 61.0 °F 53% 29.80 in 10.0 mi WSW 23.0 mph 31.1 mph N/A   Scattered Clouds
4:15 PM 79.7 °F - 61.5 °F 54% 29.80 in 10.0 mi WSW 26.5 mph 34.5 mph N/A   Scattered Clouds
4:35 PM 78.8 °F - 61.9 °F 56% 29.81 in 10.0 mi WSW 17.3 mph 29.9 mph N/A   Mostly Cloudy
4:55 PM 79.7 °F - 61.9 °F 54% 29.80 in 10.0 mi SW 13.8 mph 20.7 mph N/A   Mostly Cloudy
5:15 PM 80.4 °F 81.4 °F 61.5 °F 52% 29.81 in 10.0 mi South 13.8 mph 19.6 mph N/A   Scattered Clouds
5:35 PM 78.3 °F - 61.0 °F 55% 29.80 in 10.0 mi WSW 15.0 mph 20.7 mph N/A   Scattered Clouds
5:55 PM 71.8 °F - 64.9 °F 79% 29.83 in 5.0 mi WSW 10.4 mph - 0.04 in Rain Light Rain
6:15 PM 71.6 °F - 64.2 °F 77% 29.83 in 10.0 mi SW 4.6 mph - N/A   Mostly Cloudy
6:35 PM 71.6 °F - 63.7 °F 76% 29.82 in 10.0 mi WSW 5.8 mph - N/A   Scattered Clouds
6:55 PM 71.4 °F - 65.1 °F 80% 29.83 in 10.0 mi SW 5.8 mph - N/A   Scattered Clouds
7:15 PM 71.2 °F - 65.7 °F 82% 29.83 in 10.0 mi WSW 4.6 mph - N/A   Scattered Clouds
7:35 PM 70.7 °F - 65.8 °F 85% 29.83 in 10.0 mi SW 4.6 mph - 0.01 in Rain Light Rain
7:55 PM 70.2 °F - 65.5 °F 85% 29.83 in 10.0 mi SW 3.5 mph - 0.01 in   Scattered Clouds
8:15 PM 68.9 °F - 66.2 °F 91% 29.83 in 10.0 mi Calm Calm - N/A Rain Light Rain
8:35 PM 68.0 °F - 67.3 °F 98% 29.82 in 10.0 mi SW 3.5 mph - N/A   Light Drizzle
8:55 PM 68.0 °F - 67.1 °F 97% 29.82 in 10.0 mi Calm Calm - N/A Rain Light Rain
9:15 PM 68.4 °F - 67.3 °F 96% 29.84 in 10.0 mi Calm Calm - 0.02 in Rain Rain
9:35 PM 68.0 °F - 67.1 °F 97% 29.86 in 10.0 mi WSW 4.6 mph - 0.03 in Rain , Thunderstorm Light Thunderstorms and Rain
9:55 PM 67.8 °F - 67.1 °F 98% 29.89 in 7.0 mi SW 5.8 mph - 0.04 in Rain , Thunderstorm Thunderstorms and Rain
10:15 PM 66.9 °F - 66.2 °F 98% 29.88 in 10.0 mi Calm Calm - 0.02 in Rain Light Rain
10:35 PM 66.2 °F - 65.8 °F 99% 29.88 in 10.0 mi East 4.6 mph - 0.02 in   Scattered Clouds
10:55 PM 66.6 °F - 66.2 °F 99% 29.88 in 10.0 mi East 5.8 mph - 0.02 in Thunderstorm Mostly Cloudy
11:15 PM 66.6 °F - 66.4 °F 99% 29.86 in 7.0 mi SW 3.5 mph - N/A Rain , Thunderstorm Light Thunderstorms and Rain
11:35 PM 66.0 °F - 65.8 °F 99% 29.86 in 7.0 mi Calm Calm - N/A Thunderstorm Thunderstorm
11:55 PM 65.8 °F - 65.8 °F 100% 29.89 in 7.0 mi WSW 3.5 mph - N/A   Mostly Cloudy